Weather History for KIPL - February, 2014

Change the Weather History Date:

Saturday, February 15, 2014

  Actual Average Record
Temperature  
Mean Temperature 69 °F -  
Max Temperature 87 °F 74 °F 87 °F (1977)
Min Temperature 51 °F 46 °F 28 °F (1949)
Cooling Degree Days 4    
Growing Degree Days 19 (Base 50)    
Moisture  
Dew Point 37 °F    
Average Humidity 37    
Maximum Humidity 60    
Minimum Humidity 16    
Precipitation  
Precipitation 0.00 in - - ()
Sea Level Pressure  
Sea Level Pressure 29.92 in    
Wind  
Wind Speed 3 mph (SW)    
Max Wind Speed 6 mph    
Max Gust Speed -    
Visibility 10 miles    
Events      
Averages and records for this station are not official NWS values.
T = Trace of Precipitation, MM = Missing Value Source: NWS Daily Summary

Daily Weather History Graph

Daily Weather History Graph

Search for Another Location

Airport or City:

Trip Planner

Search our weather history database for the weather conditions in past years. The results will help you decide how hot, cold, wet, or windy it might be!

Date:

Astronomy

Feb. 15, 2014 Rise Set
Actual Time 6:25 AM PST 5:27 PM PST
Civil Twilight 6:00 AM PST 5:53 PM PST
Nautical Twilight 5:31 AM PST 6:22 PM PST
Astronomical Twilight 5:02 AM PST 6:50 PM PST
Moon 6:25 PM PST (2/15) 6:31 AM PST (2/15)
Length of Visible Light 11h 52m
Length of Day
11h 02m
Full, 99% of the Moon is Illuminated
Feb 15
Full
Feb 22
Last Quarter
Mar 1
New
Mar 8
First Quarter
Mar 16
Full

Hourly Weather History & Observations

Time (PST) Temp. Dew Point Humidity Pressure Visibility Wind Dir Wind Speed Gust Speed Precip Events Conditions
12:53 AM 54.0 °F 39.0 °F 57% 29.93 in 10.0 mi West 5.8 mph - N/A   Clear
1:53 AM 54.0 °F 35.1 °F 49% 29.92 in 10.0 mi West 5.8 mph - N/A   Clear
2:53 AM 53.1 °F 34.0 °F 48% 29.91 in 10.0 mi Calm Calm - N/A   Clear
3:53 AM 53.1 °F 33.1 °F 47% 29.91 in 10.0 mi Calm Calm - N/A   Clear
4:53 AM 51.1 °F 33.1 °F 50% 29.91 in 10.0 mi SSW 3.5 mph - N/A   Clear
5:53 AM 51.1 °F 30.9 °F 46% 29.93 in 10.0 mi West 4.6 mph - N/A   Clear
6:53 AM 51.1 °F 30.0 °F 44% 29.94 in 10.0 mi WSW 5.8 mph - N/A   Clear
7:53 AM 55.0 °F 37.0 °F 51% 29.97 in 10.0 mi Calm Calm - N/A   Clear
8:53 AM 64.9 °F 39.9 °F 40% 29.98 in 10.0 mi West 3.5 mph - N/A   Clear
9:53 AM 73.9 °F 36.0 °F 25% 30.00 in 10.0 mi NW 4.6 mph - N/A   Clear
10:53 AM 78.1 °F 37.0 °F 23% 29.98 in 10.0 mi Calm Calm - N/A   Clear
11:53 AM 81.0 °F 37.0 °F 21% 29.96 in 10.0 mi Variable 3.5 mph - N/A   Clear
12:53 PM 84.0 °F 36.0 °F 18% 29.92 in 10.0 mi Calm Calm - N/A   Clear
1:53 PM 87.1 °F 36.0 °F 16% 29.90 in 10.0 mi Variable 3.5 mph - N/A   Clear
2:53 PM 86.0 °F 36.0 °F 17% 29.89 in 10.0 mi ESE 5.8 mph - N/A   Clear
3:53 PM 87.1 °F 36.0 °F 16% 29.89 in 10.0 mi East 4.6 mph - N/A   Clear
4:53 PM 84.9 °F 37.9 °F 19% 29.88 in 10.0 mi ESE 4.6 mph - N/A   Clear
5:53 PM 78.1 °F 39.0 °F 25% 29.88 in 10.0 mi Calm Calm - N/A   Clear
6:53 PM 73.9 °F 41.0 °F 30% 29.88 in 10.0 mi SSE 4.6 mph - N/A   Clear
7:53 PM 69.1 °F 42.1 °F 38% 29.90 in 9.0 mi NNW 4.6 mph - N/A   Clear
8:53 PM 64.9 °F 42.1 °F 43% 29.91 in 9.0 mi East 3.5 mph - N/A   Clear
9:53 PM 63.0 °F 42.1 °F 46% 29.91 in 9.0 mi Calm Calm - N/A   Clear
10:53 PM 57.9 °F 44.1 °F 60% 29.91 in 10.0 mi Calm Calm - N/A   Clear
11:53 PM 57.9 °F 42.1 °F 56% 29.91 in 10.0 mi Calm Calm - N/A   Clear